Total_Precipitation_Accumulation
0.15 0.19 0.29 0.27 0.17 0.17 0.21 0.25 0.27 0.26 0.22 0.19 0.16 0.13 0.12 0.10 0.12 0.14 0.15 0.19 0.26 0.33 0.39 0.44 0.51 0.49 0.53 0.57 0.57 0.53 0.55 0.69 0.80 0.87 0.92 0.96 1.11 1.35 1.48 1.66 1.74 1.25 1.07
0.04 0.11 0.23 0.24 0.16 0.15 0.17 0.21 0.22 0.22 0.19 0.17 0.14 0.12 0.11 0.12 0.14 0.15 0.18 0.22 0.28 0.32 0.34 0.37 0.43 0.45 0.43 0.44 0.48 0.49 0.55 0.74 1.02 1.14 1.25 1.18 1.34 1.54 1.51 1.52 1.66 1.09 1.02
0.05 0.08 0.13 0.21 0.16 0.14 0.14 0.17 0.17 0.18 0.17 0.16 0.13 0.12 0.12 0.14 0.17 0.21 0.27 0.30 0.32 0.34 0.36 0.36 0.38 0.38 0.39 0.39 0.43 0.51 0.65 0.92 1.23 1.52 1.78 1.28 0.99 1.45 1.46 1.43 1.30 1.00 0.90
0.06 0.06 0.06 0.13 0.16 0.12 0.12 0.15 0.17 0.17 0.15 0.15 0.14 0.14 0.15 0.19 0.24 0.29 0.35 0.35 0.34 0.34 0.32 0.32 0.35 0.31 0.36 0.41 0.45 0.56 0.70 0.97 1.29 1.71 1.74 1.12 0.69 1.02 1.19 1.14 0.98 0.80 0.76
0.06 0.05 0.07 0.10 0.13 0.12 0.12 0.15 0.16 0.16 0.15 0.15 0.15 0.18 0.20 0.25 0.29 0.30 0.33 0.34 0.33 0.32 0.33 0.34 0.35 0.28 0.30 0.38 0.48 0.60 0.74 1.05 1.47 1.56 1.07 1.10 1.13 1.09 0.97 0.93 0.91 0.77 0.73
0.07 0.05 0.08 0.13 0.13 0.12 0.13 0.16 0.18 0.15 0.16 0.17 0.16 0.19 0.24 0.28 0.31 0.30 0.31 0.30 0.31 0.33 0.33 0.35 0.32 0.31 0.35 0.39 0.53 0.66 0.83 1.11 1.37 1.01 0.76 0.92 0.97 1.01 0.97 0.93 0.86 0.75 0.70
0.07 0.08 0.10 0.15 0.14 0.13 0.14 0.16 0.17 0.16 0.17 0.17 0.16 0.18 0.23 0.28 0.30 0.29 0.28 0.29 0.31 0.34 0.31 0.29 0.29 0.37 0.45 0.54 0.65 0.70 0.84 1.11 1.01 0.81 0.90 1.06 0.99 0.97 1.20 1.27 1.07 0.83 0.61
0.07 0.08 0.12 0.16 0.15 0.15 0.16 0.17 0.18 0.18 0.18 0.18 0.19 0.19 0.22 0.26 0.30 0.29 0.29 0.30 0.31 0.33 0.33 0.32 0.30 0.37 0.43 0.52 0.62 0.69 0.83 0.94 0.80 0.74 0.91 1.03 0.84 0.94 1.35 1.46 1.31 1.11 0.80
0.16 0.11 0.14 0.15 0.17 0.19 0.20 0.20 0.21 0.22 0.22 0.22 0.22 0.22 0.23 0.23 0.27 0.30 0.32 0.31 0.32 0.34 0.35 0.36 0.37 0.39 0.40 0.48 0.60 0.72 0.90 0.99 0.84 0.82 0.82 0.95 0.80 0.97 1.36 1.40 1.25 1.19 0.96
0.40 0.34 0.25 0.23 0.25 0.24 0.25 0.26 0.27 0.27 0.27 0.27 0.25 0.28 0.33 0.34 0.34 0.37 0.37 0.39 0.40 0.40 0.44 0.47 0.49 0.51 0.54 0.57 0.65 0.81 0.96 0.86 0.81 0.86 0.88 0.87 0.83 1.16 1.42 1.41 1.36 1.30 1.10
0.69 0.68 0.50 0.42 0.36 0.37 0.35 0.32 0.39 0.39 0.39 0.40 0.42 0.46 0.60 0.81 0.76 0.76 0.61 0.63 0.63 0.63 0.67 0.71 0.73 0.76 0.74 0.72 0.87 0.98 0.87 0.87 1.09 0.95 0.91 0.88 1.03 1.36 1.54 1.59 1.57 1.50 1.37
0.91 0.76 0.71 0.70 0.53 0.52 0.53 0.57 0.78 0.75 0.75 0.80 0.86 0.85 1.14 1.25 1.19 0.89 0.86 1.05 1.09 1.13 1.12 1.17 1.30 1.26 1.04 0.86 1.07 1.40 1.06 1.06 1.15 0.96 0.82 0.93 1.18 1.50 1.65 1.71 1.57 1.51 1.47
1.08 0.93 1.02 0.98 0.82 0.78 0.93 0.80 0.94 1.17 1.31 1.30 1.27 1.41 1.56 1.34 1.14 1.02 1.16 1.37 1.42 1.47 1.48 1.63 1.86 1.66 1.64 1.60 1.64 1.70 1.37 1.33 1.26 1.04 1.08 1.31 1.49 1.79 1.95 1.84 1.74 1.61 1.50
1.57 1.51 1.50 1.51 1.43 1.35 1.19 1.18 1.12 1.15 1.25 1.41 1.46 1.44 1.63 1.67 1.60 1.50 1.49 1.47 1.51 1.62 1.87 1.92 2.07 2.17 2.23 2.02 1.91 1.91 1.72 1.57 1.48 1.42 1.58 1.78 1.81 2.02 2.23 2.07 1.92 1.77 1.66
2.30 2.40 2.39 2.25 1.98 1.97 1.89 1.68 1.38 1.40 1.36 1.38 1.61 1.66 1.74 1.85 1.92 1.90 1.78 1.73 1.52 1.61 1.91 2.19 2.11 2.28 2.45 2.32 2.04 1.90 1.82 1.65 1.62 1.55 1.66 1.87 1.77 1.86 2.14 2.21 2.16 2.01 1.93
3.11 3.49 3.28 3.07 2.72 2.55 2.44 2.26 2.10 1.84 1.74 1.57 1.67 1.79 1.95 2.10 2.16 2.12 1.93 1.84 1.58 1.56 1.80 2.07 2.09 2.29 2.34 2.35 1.96 1.80 1.73 1.77 1.72 1.58 1.65 1.84 1.84 1.69 1.84 2.14 2.35 2.39 2.27
3.75 4.26 4.00 3.85 3.76 3.49 3.30 2.87 2.38 2.05 1.86 1.97 2.06 2.17 2.28 2.36 2.39 2.33 2.15 1.87 1.75 1.85 1.94 1.95 2.02 2.40 2.27 2.17 1.97 2.00 1.95 1.90 1.75 1.65 1.64 1.77 1.62 1.56 1.58 1.74 2.06 2.32 2.57
3.97 4.33 4.63 4.36 4.64 4.51 4.13 3.58 3.06 2.78 2.62 2.49 2.42 2.49 2.36 2.34 2.36 2.46 2.14 1.79 1.92 2.09 2.12 2.07 2.11 2.33 2.35 2.44 2.35 2.19 2.02 1.87 1.49 1.40 1.43 1.47 1.59 1.35 1.48 1.72 1.86 1.98 2.41
4.23 4.70 5.11 5.33 5.39 4.95 4.52 4.05 3.71 3.45 3.17 2.77 2.32 2.08 1.92 1.81 1.77 1.79 1.51 1.42 1.60 1.70 1.59 1.52 1.80 2.00 2.09 2.21 2.12 1.95 1.68 1.52 1.36 1.27 1.30 1.14 1.21 1.25 1.31 1.55 1.76 1.80 2.22
4.33 5.16 5.57 5.66 5.26 4.81 4.39 3.84 3.55 3.26 2.96 2.60 2.15 1.77 1.52 1.44 1.37 1.39 1.15 1.10 1.34 1.45 1.41 1.51 1.64 1.64 1.58 1.65 1.51 1.34 1.26 1.10 1.09 1.07 0.95 0.95 0.93 0.92 1.10 1.34 1.56 1.40 1.89
4.44 5.36 5.69 5.38 4.81 4.32 3.83 3.25 2.77 2.47 2.24 2.12 1.87 1.55 1.41 1.38 1.37 1.44 1.19 1.26 1.34 1.36 1.34 1.37 1.44 1.37 1.18 1.34 1.52 1.33 1.09 0.97 0.94 0.85 0.80 0.82 0.75 0.82 1.03 1.23 1.40 1.49 1.41
3.91 4.66 4.91 4.51 3.84 3.24 2.89 2.67 2.43 2.28 1.95 1.72 1.62 1.48 1.27 1.23 1.24 1.24 1.20 1.01 1.05 1.14 1.05 1.07 1.27 1.30 1.10 1.20 1.39 1.43 1.20 1.18 1.01 0.63 0.67 0.73 0.73 0.84 0.99 1.07 1.30 1.51 1.48
3.39 3.38 3.47 3.32 2.79 2.42 2.27 2.20 2.13 2.12 1.88 1.59 1.44 1.27 1.11 1.05 1.02 1.04 1.00 0.95 1.02 1.01 1.04 1.04 1.08 1.16 1.08 1.01 1.10 1.36 1.23 1.07 0.90 0.72 0.66 0.64 0.77 0.95 1.03 1.14 1.18 1.27 1.40
2.52 2.34 2.33 2.37 2.17 2.06 1.95 1.89 1.73 1.52 1.40 1.30 1.28 1.21 1.11 1.01 0.95 0.91 0.91 0.84 0.89 0.91 1.07 0.92 0.95 1.02 1.03 0.89 0.91 0.98 0.98 1.00 0.97 0.84 0.74 0.71 0.76 0.91 1.05 1.09 1.21 1.31 1.33
1.64 1.69 1.84 2.04 2.01 1.89 1.84 1.89 1.85 1.55 1.37 1.29 1.26 1.27 1.16 1.03 0.94 0.90 0.88 0.87 0.85 0.83 0.88 0.91 1.00 0.95 0.93 0.87 0.85 0.89 0.98 0.99 0.93 0.90 0.88 0.80 0.75 0.68 0.80 1.00 1.15 1.27 1.25
1.06 1.18 1.37 1.73 1.84 1.74 1.68 1.70 1.66 1.55 1.49 1.35 1.18 1.11 1.09 1.04 1.01 1.01 0.95 0.96 0.89 0.85 0.86 0.86 0.88 0.86 0.93 0.97 0.89 0.90 1.03 1.06 0.96 0.93 0.88 0.80 0.74 0.65 0.69 0.90 1.18 1.34 1.33